AAL2999 KDFW-KTPA

Flight info

Callsign AAL2999
Flight time N/A
Altitude 37000
Route MRSSH3 ZALEA HRV Q105 REDFN Y280 CHRGE RAYZZ3
Aircraft A321/M-SDE3FGHIRWY/LB1

Departure

Time 2026-05-01 13:45
Airport Dallas Fort Worth International Airport (KDFW)

Arrival

Time N/A
Airport Tampa International Airport (KTPA)
Time Latitude Longitude Altitude Speed Heading
2026-05-01 13:07 32.90777 -97.03882 587 ft 0 kts 226°
2026-05-01 13:29 32.90802 -97.03861 587 ft 4 kts 189°
2026-05-01 13:30 32.90825 -97.03863 587 ft 0 kts 161°
2026-05-01 13:34 32.90803 -97.03842 587 ft 4 kts 123°
2026-05-01 13:35 32.90800 -97.03750 587 ft 7 kts 90°
2026-05-01 13:35 32.90800 -97.03681 587 ft 9 kts 90°
2026-05-01 13:35 32.90841 -97.03520 587 ft 12 kts 75°
2026-05-01 13:36 32.90841 -97.03417 587 ft 13 kts 90°
2026-05-01 13:36 32.90816 -97.03317 586 ft 14 kts 154°
2026-05-01 13:36 32.90599 -97.03311 585 ft 17 kts 180°
2026-05-01 13:37 32.90476 -97.03312 585 ft 19 kts 180°
2026-05-01 13:37 32.90341 -97.03312 585 ft 20 kts 180°
2026-05-01 13:37 32.90198 -97.03313 585 ft 21 kts 180°
2026-05-01 13:37 32.90061 -97.03314 585 ft 18 kts 180°
2026-05-01 13:38 32.89802 -97.03315 586 ft 20 kts 180°
2026-05-01 13:38 32.89661 -97.03315 586 ft 21 kts 180°
2026-05-01 13:38 32.89512 -97.03317 586 ft 22 kts 180°
2026-05-01 13:39 32.89361 -97.03318 584 ft 22 kts 180°
2026-05-01 13:39 32.89202 -97.03318 583 ft 24 kts 180°
2026-05-01 13:39 32.89048 -97.03319 583 ft 20 kts 180°
2026-05-01 13:39 32.88902 -97.03320 582 ft 21 kts 181°
2026-05-01 13:40 32.88762 -97.03321 583 ft 20 kts 180°
2026-05-01 13:40 32.88621 -97.03321 582 ft 21 kts 180°
2026-05-01 13:40 32.88469 -97.03365 578 ft 23 kts 199°
2026-05-01 13:40 32.88319 -97.03375 580 ft 16 kts 181°
2026-05-01 13:41 32.88204 -97.03376 580 ft 17 kts 180°
2026-05-01 13:41 32.88084 -97.03377 578 ft 18 kts 180°
2026-05-01 13:41 32.87972 -97.03377 575 ft 14 kts 180°
2026-05-01 13:41 32.87905 -97.03322 582 ft 13 kts 95°
2026-05-01 13:42 32.87904 -97.03214 577 ft 13 kts 90°
2026-05-01 13:42 32.87904 -97.03140 578 ft 2 kts 90°
2026-05-01 13:42 32.87904 -97.03135 577 ft 0 kts 90°
2026-05-01 13:43 32.87904 -97.03106 576 ft 8 kts 90°
2026-05-01 13:43 32.87903 -97.03022 572 ft 7 kts 90°
2026-05-01 13:43 32.87926 -97.03010 577 ft 1 kts 360°
2026-05-01 13:44 32.87933 -97.03010 572 ft 5 kts 360°
2026-05-01 13:45 32.88194 -97.03007 577 ft 76 kts
2026-05-01 13:45 32.88956 -97.03004 573 ft 143 kts
2026-05-01 13:45 32.90125 -97.03003 675 ft 185 kts
2026-05-01 13:45 32.91404 -97.03043 1472 ft 183 kts
2026-05-01 13:46 32.92661 -97.02912 2288 ft 181 kts 19°
2026-05-01 13:46 32.93929 -97.02501 2672 ft 198 kts 21°
2026-05-01 13:46 32.95325 -97.02019 2903 ft 221 kts 21°
2026-05-01 13:46 32.96891 -97.01471 3304 ft 242 kts 20°
2026-05-01 13:47 32.98539 -97.00917 4045 ft 249 kts 20°
2026-05-01 13:47 33.00217 -97.00338 4892 ft 251 kts 25°
2026-05-01 13:47 33.01575 -96.99108 5642 ft 247 kts 59°
2026-05-01 13:47 33.02072 -96.97163 6406 ft 251 kts 86°
2026-05-01 13:48 33.02011 -96.95058 7124 ft 258 kts 95°
2026-05-01 13:48 33.01761 -96.92912 7809 ft 265 kts 97°
2026-05-01 13:48 33.01467 -96.90704 8482 ft 273 kts 97°
2026-05-01 13:48 33.01197 -96.88436 9128 ft 280 kts 97°
2026-05-01 13:49 33.00691 -96.86189 9780 ft 289 kts 112°
2026-05-01 13:49 32.99689 -96.84075 10372 ft 299 kts 124°
2026-05-01 13:49 32.98440 -96.81977 10593 ft 322 kts 124°
2026-05-01 13:49 32.97109 -96.79721 10794 ft 342 kts 125°
2026-05-01 13:50 32.95724 -96.77360 11281 ft 352 kts 126°
2026-05-01 13:50 32.94302 -96.74934 11837 ft 360 kts 127°
2026-05-01 13:50 32.92853 -96.72471 12402 ft 367 kts 127°
2026-05-01 13:50 32.91391 -96.69991 12958 ft 374 kts 128°
2026-05-01 13:51 32.89879 -96.67433 13520 ft 381 kts 129°
2026-05-01 13:51 32.88335 -96.64823 14061 ft 388 kts 129°
2026-05-01 13:51 32.86771 -96.62175 14578 ft 394 kts 129°
2026-05-01 13:51 32.85188 -96.59497 15125 ft 398 kts 130°
2026-05-01 13:52 32.83584 -96.56790 15710 ft 403 kts 130°
2026-05-01 13:52 32.81958 -96.54047 16307 ft 407 kts 130°
2026-05-01 13:52 32.80872 -96.52218 16682 ft 410 kts 130°
2026-05-01 13:52 32.79219 -96.49436 17254 ft 414 kts 130°
2026-05-01 13:53 32.77548 -96.46620 17831 ft 419 kts 130°
2026-05-01 13:53 32.73579 -96.39922 18904 ft 432 kts 131°
2026-05-01 13:53 32.72408 -96.37943 19212 ft 435 kts 131°
2026-05-01 13:54 32.70906 -96.34830 19703 ft 446 kts 121°
2026-05-01 13:54 32.69832 -96.31330 20211 ft 456 kts 109°
2026-05-01 13:54 32.69286 -96.27592 20722 ft 464 kts 98°
2026-05-01 13:54 32.69048 -96.23762 21220 ft 468 kts 98°
2026-05-01 13:55 32.68804 -96.19896 21708 ft 471 kts 98°
2026-05-01 13:55 32.68548 -96.16002 22202 ft 474 kts 99°
2026-05-01 13:55 32.68283 -96.12091 22684 ft 477 kts 99°
2026-05-01 13:55 32.68011 -96.08143 23162 ft 480 kts 99°
2026-05-01 13:56 32.67736 -96.04165 23502 ft 487 kts 99°
2026-05-01 13:56 32.67458 -96.00142 23846 ft 491 kts 99°
2026-05-01 13:56 32.67179 -95.96083 24223 ft 494 kts 99°
2026-05-01 13:56 32.66902 -95.92010 24634 ft 495 kts 99°
2026-05-01 13:57 32.66628 -95.87937 25045 ft 496 kts 100°
2026-05-01 13:57 32.66354 -95.83898 25454 ft 497 kts 100°
2026-05-01 13:57 32.66072 -95.79805 25869 ft 498 kts 101°
2026-05-01 13:57 32.65785 -95.75702 26290 ft 498 kts 101°
2026-05-01 13:58 32.65497 -95.71598 26692 ft 499 kts 101°
2026-05-01 13:58 32.65208 -95.67482 27058 ft 501 kts 101°
2026-05-01 13:58 32.64913 -95.63354 27409 ft 503 kts 102°
2026-05-01 13:58 32.64612 -95.59191 27792 ft 505 kts 102°
2026-05-01 13:59 32.64314 -95.55029 28176 ft 506 kts 102°
2026-05-01 13:59 32.64023 -95.50923 28558 ft 507 kts 102°
2026-05-01 13:59 32.63727 -95.46754 28941 ft 508 kts 103°
2026-05-01 13:59 32.63430 -95.42570 29316 ft 508 kts 103°
2026-05-01 14:00 32.63128 -95.38384 29679 ft 509 kts 103°
2026-05-01 14:00 32.62822 -95.34197 30041 ft 510 kts 104°
2026-05-01 14:00 32.62510 -95.29997 30349 ft 512 kts 103°
2026-05-01 14:00 32.62194 -95.25782 30617 ft 514 kts 103°
2026-05-01 14:01 32.61878 -95.21551 30889 ft 516 kts 103°
2026-05-01 14:01 32.61561 -95.17303 31168 ft 518 kts 103°
2026-05-01 14:01 32.61243 -95.13041 31447 ft 519 kts 103°
2026-05-01 14:01 32.60924 -95.08759 31770 ft 520 kts 103°
2026-05-01 14:02 32.60605 -95.04497 32167 ft 518 kts 103°
2026-05-01 14:02 32.60284 -95.00249 32557 ft 517 kts 103°
2026-05-01 14:02 32.59960 -94.96001 32944 ft 516 kts 104°
2026-05-01 14:02 32.59643 -94.91825 33343 ft 515 kts 103°
2026-05-01 14:03 32.59320 -94.87598 33705 ft 514 kts 103°
2026-05-01 14:03 32.58995 -94.83386 34079 ft 513 kts 103°
2026-05-01 14:03 32.58624 -94.79187 34395 ft 508 kts 108°
2026-05-01 14:03 32.57860 -94.75090 34689 ft 497 kts 116°
2026-05-01 14:04 32.56796 -94.71269 34960 ft 494 kts 118°
2026-05-01 14:04 32.55699 -94.67407 35250 ft 494 kts 118°
2026-05-01 14:04 32.54607 -94.63550 35533 ft 494 kts 118°
2026-05-01 14:04 32.53516 -94.59685 35766 ft 494 kts 118°
2026-05-01 14:05 32.52426 -94.55821 36077 ft 494 kts 117°
2026-05-01 14:05 32.51339 -94.51962 36305 ft 495 kts 117°
2026-05-01 14:05 32.50246 -94.48084 36537 ft 496 kts 117°
2026-05-01 14:05 32.49148 -94.44206 36778 ft 496 kts 117°
2026-05-01 14:06 32.48046 -94.40333 36993 ft 497 kts 118°
2026-05-01 14:06 32.46939 -94.36453 37071 ft 494 kts 118°
2026-05-01 14:06 32.44754 -94.28779 37076 ft 489 kts 118°
2026-05-01 14:07 32.42581 -94.21191 37078 ft 488 kts 118°
2026-05-01 14:08 32.39301 -94.09766 37078 ft 493 kts 118°
2026-05-01 14:08 32.37092 -94.02079 37090 ft 493 kts 118°
2026-05-01 14:09 32.34875 -93.94391 37101 ft 494 kts 118°
2026-05-01 14:09 32.32653 -93.86709 37094 ft 494 kts 118°
2026-05-01 14:10 32.30424 -93.79012 37103 ft 494 kts 118°
2026-05-01 14:10 32.28197 -93.71365 37055 ft 495 kts 117°
2026-05-01 14:11 32.25942 -93.63649 37066 ft 497 kts 117°
2026-05-01 14:11 32.22542 -93.52039 37079 ft 498 kts 118°
2026-05-01 14:12 32.19502 -93.44956 37086 ft 476 kts 136°
2026-05-01 14:12 32.15507 -93.38805 37092 ft 472 kts 138°
2026-05-01 14:13 32.12144 -93.33666 37097 ft 472 kts 138°
2026-05-01 14:13 32.07476 -93.26509 37099 ft 473 kts 138°
2026-05-01 14:14 32.03464 -93.20370 37101 ft 472 kts 138°
2026-05-01 14:14 31.99446 -93.14234 37069 ft 473 kts 137°
2026-05-01 14:15 31.95450 -93.08141 37079 ft 473 kts 137°
2026-05-01 14:15 31.91416 -93.01995 37095 ft 474 kts 137°
2026-05-01 14:16 31.87377 -92.95862 37094 ft 474 kts 137°
2026-05-01 14:16 31.83326 -92.89730 37096 ft 474 kts 137°
2026-05-01 14:17 31.79279 -92.83614 37090 ft 474 kts 137°
2026-05-01 14:17 31.75234 -92.77496 37059 ft 473 kts 135°
2026-05-01 14:18 31.71268 -92.71404 37050 ft 471 kts 136°
2026-05-01 14:18 31.67888 -92.66319 37073 ft 471 kts 137°
2026-05-01 14:19 31.63160 -92.59284 37065 ft 473 kts 137°